Flag for U.S.A. Weather past 2 weeks in Leesburg, Virginia, U.S.A.

Now
73 °F

Scattered clouds.


Feels Like: 77 °F
Forecast: 50 / 74 °F
Wind: 7 mph from West

Location: Leesburg / Godfrey

Current Time: Sep 17, 2014 at 1:48:55 PM

Latest Report: Sep 17, 2014 at 1:15 PM


Visibility: 10 mi

Pressure: 30.03 "Hg

Humidity: 47%

Dew point: 52 °F

Location of LeesburgLocation

Historic Weather in Leesburg — Graph

°F

Leesburg temperature yesterday

Maximum temperature yesterday: 77 °F (at 3:15 PM)
Minimum temperature yesterday: 55 °F (at 11:55 PM)
Average temperature yesterday: 66 °F

Past Weeks' High & Low Weather Summary

 TemperatureHumidityPressure
High93 °F (Sep 2, 3:35 PM)100% (Sep 2, 6:55 PM)30.35 "Hg (Sep 2, 6:55 PM)
Low48 °F (Sep 14, 7:15 AM)42% (Sep 7, 2:15 PM)29.86 "Hg (Sep 2, 4:55 PM)
Average70 °F81%30.11 "Hg
* Reported Sep 2 12:15 PM — Sep 17 12:35 PM, Leesburg, Weather by CustomWeather, © 2014

Note: Actual official high and low records may vary slightly from our data, if they occured in-between our weather recording intervals... More about our weather records

Advertising

Leesburg weather history for previous 24 hours

 ConditionsComfort  
Time TempWeatherWind HumidityBarometerVisibility
12:35 PM
Sep 17
72 °FScattered clouds.No wind50%30.05 "Hg10 mi
12:15 PM70 °FBroken clouds.No wind57%30.06 "Hg10 mi
11:55 AM70 °FOvercast.No wind60%30.06 "Hg10 mi
11:35 AM70 °FPartly sunny.No wind57%30.07 "Hg10 mi
11:15 AM68 °FPartly sunny.3 mph60%30.07 "Hg10 mi
10:55 AM66 °FOvercast.No wind64%30.08 "Hg10 mi
10:35 AM64 °FOvercast.3 mph68%30.08 "Hg10 mi
10:15 AM64 °FOvercast.6 mph68%30.08 "Hg10 mi
9:55 AM64 °FScattered clouds.6 mph68%30.09 "Hg10 mi
9:35 AM61 °FPartly sunny.5 mph83%30.09 "Hg10 mi
9:15 AM61 °FOvercast.No wind77%30.09 "Hg10 mi
8:55 AM59 °FPartly sunny.No wind82%30.09 "Hg10 mi
8:35 AM57 °FPartly sunny.No wind88%30.08 "Hg10 mi
8:15 AM55 °FPartly sunny.No wind100%30.08 "Hg10 mi
7:55 AM52 °FPartly sunny.No wind100%30.08 "Hg10 mi
7:35 AM50 °FClear.No wind100%30.08 "Hg10 mi
7:15 AM50 °FClear.No wind100%30.07 "Hg10 mi
6:55 AM50 °FClear.No wind100%30.07 "Hg10 mi
6:35 AM50 °FClear.No wind100%30.06 "Hg10 mi
6:15 AM50 °FClear.No wind100%30.06 "Hg10 mi
5:55 AM50 °FClear.No wind100%30.06 "Hg10 mi
5:35 AM50 °FClear.No wind100%30.06 "Hg10 mi
5:15 AM50 °FClear.No wind100%30.06 "Hg10 mi
4:55 AM50 °FClear.No wind100%30.06 "Hg10 mi
4:35 AM50 °FClear.3 mph100%30.06 "Hg10 mi
4:15 AM50 °FClear.5 mph100%30.06 "Hg10 mi
3:55 AM50 °FClear.No wind100%30.06 "Hg10 mi
3:35 AM52 °FPassing clouds.No wind100%30.06 "Hg10 mi
3:15 AM54 °FClear.No wind94%30.06 "Hg10 mi
2:55 AM54 °FClear.No wind100%30.06 "Hg10 mi
2:35 AM54 °FClear.6 mph100%30.06 "Hg10 mi
2:15 AM52 °FClear.3 mph100%30.07 "Hg10 mi
1:55 AM54 °FClear.No wind100%30.06 "Hg10 mi
1:35 AM52 °FClear.No wind100%30.07 "Hg10 mi
1:15 AM52 °FClear.No wind100%30.06 "Hg10 mi
12:55 AM54 °FClear.No wind100%30.06 "Hg10 mi
12:35 AM54 °FClear.No wind100%30.06 "Hg10 mi
12:15 AM55 °FClear.No wind94%30.06 "Hg10 mi
11:55 PM
Sep 16
55 °FClear.No wind94%30.06 "Hg10 mi
11:15 PM59 °FClear.No wind82%30.06 "Hg10 mi
10:55 PM59 °FClear.6 mph82%30.06 "Hg10 mi
10:35 PM57 °FClear.3 mph88%30.06 "Hg10 mi
10:15 PM59 °FClear.3 mph82%30.06 "Hg10 mi
9:55 PM59 °FClear.5 mph82%30.05 "Hg10 mi
9:35 PM63 °FClear.No wind73%30.05 "Hg10 mi
9:15 PM61 °FClear.No wind77%30.05 "Hg10 mi
8:55 PM63 °FClear.No wind73%30.04 "Hg10 mi
8:35 PM64 °FClear.5 mph68%30.03 "Hg10 mi
8:15 PM66 °FSunny.3 mph64%30.03 "Hg10 mi
7:55 PM66 °FSunny.5 mph64%30.03 "Hg10 mi
7:35 PM68 °FSunny.6 mph60%30.02 "Hg10 mi
7:15 PM70 °FSunny.7 mph57%30.02 "Hg10 mi
6:15 PM72 °FSunny.7 mph53%30.02 "Hg10 mi
5:55 PM72 °FSunny.7 mph53%30.02 "Hg10 mi
5:15 PM72 °FPartly sunny.10 mph53%30.02 "Hg10 mi
4:55 PM73 °FMore clouds than sun.8 mph50%30.01 "Hg10 mi
4:35 PM73 °FBroken clouds.8 mph50%30.01 "Hg10 mi
4:15 PM75 °FBroken clouds.9 mph47%30.02 "Hg10 mi
3:55 PM77 °FBroken clouds.12 mph44%30.01 "Hg10 mi
3:35 PM73 °FMore clouds than sun.10 mph50%30.02 "Hg10 mi
3:15 PM77 °FBroken clouds.12 mph44%30.01 "Hg10 mi
2:55 PM75 °FScattered clouds.12 mph47%30.02 "Hg10 mi
2:15 PM73 °FScattered clouds.9 mph53%30.02 "Hg10 mi
1:55 PM73 °FScattered clouds.13 mph53%30.03 "Hg10 mi
1:35 PM73 °FScattered clouds.13 mph53%30.03 "Hg10 mi
1:15 PM75 °FScattered clouds.14 mph50%30.03 "Hg10 mi
Weather by CustomWeather, © 2014

See weather overviewHow to use our weather pages